P/2013 A2 ( Scotti ) 2021

Japanese version
Home page
Updated on November 4, 2020

---------------------------------------------------------------------

* Profile

* Orbital Elements

Epoch 2021 Mar. 7.0 TT = JDT 2459280.5
T 2021 Feb. 15.75671 TT                                 MPC
q   2.1899814            (2000.0)            P               Q
n   0.12255389     Peri.  134.53275     -0.64745767     -0.76208938
a   4.0140673      Node   355.81071     +0.68153620     -0.57648774
e   0.4544234      Incl.    3.36137     +0.34103807     -0.29475697
P   8.04
From 89 observations 2013 Jan. 6-June 1, mean residual 0".4.

* Magnitudes Graph

        m1 = 12.5 + 5 log d + 20.0 log r

---------------------------------------------------------------------

The orbital elements are published on M.P.E.C. 2013-L39.
The magnitudes graphs are made with Comet for Windows.

---------------------------------------------------------------------

Copyright(C) Seiichi Yoshida (comet@aerith.net). All rights reserved.